Wetterdaten: Donnerstag, 13.08.2015
Datum Zeit Temp. A. Feuchte A. Luftdruck Regen Wind Richtung Richtung Sonnenschein ET UV Solar Taupunkt Windchill Windben Empfang
13.08.2015 00:03 22,1 C 57 % 1017,0 hPa 0,0 l/m 0,0 km/h (0 Bft) NO 42 0 min 0,000 mm 0,0 UV-I 0 W/m 13,2 C 22,1 C 0,0 km/h (0 Bft) 0,00 %
13.08.2015 00:08 21,9 C 57 % 1017,0 hPa 0,0 l/m 0,0 km/h (0 Bft) NO 45 0 min 0,000 mm 0,0 UV-I 0 W/m 13,0 C 21,9 C 0,0 km/h (0 Bft) 0,00 %
13.08.2015 00:13 21,7 C 57 % 1016,8 hPa 0,0 l/m 0,0 km/h (0 Bft) NO 45 0 min 0,000 mm 0,0 UV-I 0 W/m 12,8 C 21,7 C 0,0 km/h (0 Bft) 0,00 %
13.08.2015 00:18 21,6 C 58 % 1016,9 hPa 0,0 l/m 0,0 km/h (0 Bft) NO 44 0 min 0,000 mm 0,0 UV-I 0 W/m 13,0 C 21,6 C 0,0 km/h (0 Bft) 0,00 %
13.08.2015 00:23 21,5 C 58 % 1016,9 hPa 0,0 l/m 0,0 km/h (0 Bft) NO 44 0 min 0,000 mm 0,0 UV-I 0 W/m 12,9 C 21,5 C 0,0 km/h (0 Bft) 0,00 %
13.08.2015 00:28 21,3 C 59 % 1016,9 hPa 0,0 l/m 0,0 km/h (0 Bft) NO 42 0 min 0,000 mm 0,0 UV-I 0 W/m 13,0 C 21,3 C 0,0 km/h (0 Bft) 0,00 %
13.08.2015 00:33 21,2 C 59 % 1016,9 hPa 0,0 l/m 0,0 km/h (0 Bft) O-NO 57 0 min 0,000 mm 0,0 UV-I 0 W/m 12,9 C 21,2 C 0,0 km/h (0 Bft) 0,00 %
13.08.2015 00:38 21,0 C 61 % 1016,9 hPa 0,0 l/m 0,0 km/h (0 Bft) NO 47 0 min 0,000 mm 0,0 UV-I 0 W/m 13,2 C 21,0 C 0,0 km/h (0 Bft) 0,00 %
13.08.2015 00:43 20,9 C 61 % 1017,1 hPa 0,0 l/m 0,0 km/h (0 Bft) NO 37 0 min 0,000 mm 0,0 UV-I 0 W/m 13,1 C 20,9 C 0,0 km/h (0 Bft) 0,00 %
13.08.2015 00:48 20,8 C 61 % 1016,8 hPa 0,0 l/m 0,0 km/h (0 Bft) NO 55 0 min 0,000 mm 0,0 UV-I 0 W/m 13,0 C 20,8 C 0,0 km/h (0 Bft) 0,00 %
13.08.2015 00:53 20,6 C 62 % 1016,9 hPa 0,0 l/m 0,0 km/h (0 Bft) NO 48 0 min 0,000 mm 0,0 UV-I 0 W/m 13,1 C 20,6 C 0,0 km/h (0 Bft) 0,00 %
13.08.2015 00:58 20,5 C 61 % 1016,9 hPa 0,0 l/m 0,0 km/h (0 Bft) NO 54 0 min 0,000 mm 0,0 UV-I 0 W/m 12,7 C 20,5 C 0,0 km/h (0 Bft) 0,00 %
13.08.2015 01:03 20,4 C 61 % 1016,9 hPa 0,0 l/m 0,0 km/h (0 Bft) NO 46 0 min 0,000 mm 0,0 UV-I 0 W/m 12,6 C 20,4 C 0,0 km/h (0 Bft) 0,00 %
13.08.2015 01:08 20,4 C 62 % 1017,1 hPa 0,0 l/m 0,0 km/h (0 Bft) NO 47 0 min 0,000 mm 0,0 UV-I 0 W/m 12,9 C 20,4 C 0,0 km/h (0 Bft) 0,00 %
13.08.2015 01:13 20,3 C 63 % 1017,0 hPa 0,0 l/m 0,0 km/h (0 Bft) NO 43 0 min 0,000 mm 0,0 UV-I 0 W/m 13,0 C 20,3 C 0,0 km/h (0 Bft) 0,00 %
13.08.2015 01:18 20,2 C 64 % 1016,9 hPa 0,0 l/m 0,0 km/h (0 Bft) NO 48 0 min 0,000 mm 0,0 UV-I 0 W/m 13,2 C 20,2 C 0,0 km/h (0 Bft) 0,00 %
13.08.2015 01:23 20,1 C 63 % 1016,8 hPa 0,0 l/m 0,0 km/h (0 Bft) NO 45 0 min 0,000 mm 0,0 UV-I 0 W/m 12,8 C 20,1 C 0,0 km/h (0 Bft) 0,00 %
13.08.2015 01:28 20,0 C 65 % 1016,9 hPa 0,0 l/m 0,0 km/h (0 Bft) N-NO 13 0 min 0,000 mm 0,0 UV-I 0 W/m 13,2 C 20,0 C 0,0 km/h (0 Bft) 0,00 %
13.08.2015 01:33 19,9 C 65 % 1016,8 hPa 0,0 l/m 0,0 km/h (0 Bft) NO 46 0 min 0,000 mm 0,0 UV-I 0 W/m 13,1 C 19,9 C 0,0 km/h (0 Bft) 0,00 %
13.08.2015 01:38 19,8 C 64 % 1016,8 hPa 0,0 l/m 0,0 km/h (0 Bft) NO 48 0 min 0,000 mm 0,0 UV-I 0 W/m 12,8 C 19,8 C 0,0 km/h (0 Bft) 0,00 %
13.08.2015 01:43 19,8 C 65 % 1016,8 hPa 0,0 l/m 0,0 km/h (0 Bft) NO 41 0 min 0,000 mm 0,0 UV-I 0 W/m 13,0 C 19,8 C 0,0 km/h (0 Bft) 0,00 %
13.08.2015 01:48 19,7 C 65 % 1016,9 hPa 0,0 l/m 0,0 km/h (0 Bft) NO 46 0 min 0,000 mm 0,0 UV-I 0 W/m 12,9 C 19,7 C 0,0 km/h (0 Bft) 0,00 %
13.08.2015 01:53 19,7 C 65 % 1016,7 hPa 0,0 l/m 0,0 km/h (0 Bft) NO 43 0 min 0,000 mm 0,0 UV-I 0 W/m 12,9 C 19,7 C 0,0 km/h (0 Bft) 0,00 %
13.08.2015 01:58 19,6 C 65 % 1016,7 hPa 0,0 l/m 0,0 km/h (0 Bft) NO 43 0 min 0,000 mm 0,0 UV-I 0 W/m 12,8 C 19,6 C 0,0 km/h (0 Bft) 0,00 %
13.08.2015 02:03 19,5 C 66 % 1017,0 hPa 0,0 l/m 0,0 km/h (0 Bft) N-NO 29 0 min 0,000 mm 0,0 UV-I 0 W/m 13,0 C 19,5 C 0,0 km/h (0 Bft) 0,00 %
13.08.2015 02:08 19,4 C 67 % 1017,1 hPa 0,0 l/m 0,0 km/h (0 Bft) NO 44 0 min 0,000 mm 0,0 UV-I 0 W/m 13,1 C 19,4 C 0,0 km/h (0 Bft) 0,00 %
13.08.2015 02:13 19,2 C 68 % 1017,0 hPa 0,0 l/m 0,0 km/h (0 Bft) NO 44 0 min 0,000 mm 0,0 UV-I 0 W/m 13,1 C 19,2 C 0,0 km/h (0 Bft) 0,00 %
13.08.2015 02:18 19,1 C 68 % 1017,0 hPa 0,0 l/m 0,0 km/h (0 Bft) NO 42 0 min 0,000 mm 0,0 UV-I 0 W/m 13,1 C 19,1 C 0,0 km/h (0 Bft) 0,00 %
13.08.2015 02:23 19,0 C 67 % 1016,8 hPa 0,0 l/m 0,0 km/h (0 Bft) NO 44 0 min 0,000 mm 0,0 UV-I 0 W/m 12,7 C 19,0 C 0,0 km/h (0 Bft) 0,00 %
13.08.2015 02:28 18,9 C 69 % 1016,7 hPa 0,0 l/m 0,0 km/h (0 Bft) NO 45 0 min 0,000 mm 0,0 UV-I 0 W/m 13,1 C 18,9 C 0,0 km/h (0 Bft) 0,00 %
13.08.2015 02:33 18,9 C 70 % 1016,7 hPa 0,0 l/m 0,0 km/h (0 Bft) NO 45 0 min 0,000 mm 0,0 UV-I 0 W/m 13,3 C 18,9 C 0,0 km/h (0 Bft) 0,00 %
13.08.2015 02:38 18,8 C 69 % 1016,7 hPa 0,0 l/m 0,0 km/h (0 Bft) NO 46 0 min 0,000 mm 0,0 UV-I 0 W/m 13,0 C 18,8 C 0,0 km/h (0 Bft) 0,00 %
13.08.2015 02:43 18,7 C 69 % 1016,6 hPa 0,0 l/m 0,0 km/h (0 Bft) NO 40 0 min 0,000 mm 0,0 UV-I 0 W/m 12,9 C 18,7 C 0,0 km/h (0 Bft) 0,00 %
13.08.2015 02:48 18,6 C 69 % 1016,6 hPa 0,0 l/m 0,0 km/h (0 Bft) NO 35 0 min 0,000 mm 0,0 UV-I 0 W/m 12,8 C 18,6 C 0,0 km/h (0 Bft) 0,00 %
13.08.2015 02:53 18,6 C 71 % 1016,6 hPa 0,0 l/m 0,0 km/h (0 Bft) NO 44 0 min 0,000 mm 0,0 UV-I 0 W/m 13,2 C 18,6 C 0,0 km/h (0 Bft) 0,00 %
13.08.2015 02:58 18,6 C 71 % 1016,5 hPa 0,0 l/m 0,0 km/h (0 Bft) NO 48 0 min 0,000 mm 0,0 UV-I 0 W/m 13,2 C 18,6 C 0,0 km/h (0 Bft) 0,00 %
13.08.2015 03:03 18,5 C 71 % 1016,6 hPa 0,0 l/m 0,0 km/h (0 Bft) NO 46 0 min 0,000 mm 0,0 UV-I 0 W/m 13,1 C 18,5 C 0,0 km/h (0 Bft) 0,00 %
13.08.2015 03:08 18,5 C 71 % 1016,4 hPa 0,0 l/m 0,0 km/h (0 Bft) NO 48 0 min 0,000 mm 0,0 UV-I 0 W/m 13,1 C 18,5 C 0,0 km/h (0 Bft) 0,00 %
13.08.2015 03:13 18,4 C 71 % 1016,6 hPa 0,0 l/m 0,0 km/h (0 Bft) NO 47 0 min 0,000 mm 0,0 UV-I 0 W/m 13,0 C 18,4 C 0,0 km/h (0 Bft) 0,00 %
13.08.2015 03:18 18,2 C 71 % 1016,5 hPa 0,0 l/m 0,0 km/h (0 Bft) NO 53 0 min 0,000 mm 0,0 UV-I 0 W/m 12,9 C 18,2 C 0,0 km/h (0 Bft) 0,00 %
13.08.2015 03:23 18,2 C 72 % 1016,5 hPa 0,0 l/m 0,0 km/h (0 Bft) NO 46 0 min 0,000 mm 0,0 UV-I 0 W/m 13,1 C 18,2 C 0,0 km/h (0 Bft) 0,00 %
13.08.2015 03:28 18,1 C 72 % 1016,5 hPa 0,0 l/m 0,0 km/h (0 Bft) O-NO 68 0 min 0,000 mm 0,0 UV-I 0 W/m 13,0 C 18,1 C 0,0 km/h (0 Bft) 0,00 %
13.08.2015 03:33 18,0 C 73 % 1016,4 hPa 0,0 l/m 0,0 km/h (0 Bft) NO 49 0 min 0,000 mm 0,0 UV-I 0 W/m 13,1 C 18,0 C 0,0 km/h (0 Bft) 0,00 %
13.08.2015 03:38 18,0 C 72 % 1016,5 hPa 0,0 l/m 0,0 km/h (0 Bft) NO 48 0 min 0,000 mm 0,0 UV-I 0 W/m 12,9 C 18,0 C 0,0 km/h (0 Bft) 0,00 %
13.08.2015 03:43 17,9 C 73 % 1016,6 hPa 0,0 l/m 0,0 km/h (0 Bft) NO 45 0 min 0,000 mm 0,0 UV-I 0 W/m 13,0 C 17,9 C 0,0 km/h (0 Bft) 0,00 %
13.08.2015 03:48 17,9 C 73 % 1016,6 hPa 0,0 l/m 0,0 km/h (0 Bft) NO 49 0 min 0,000 mm 0,0 UV-I 0 W/m 13,0 C 17,9 C 0,0 km/h (0 Bft) 0,00 %
13.08.2015 03:53 17,8 C 74 % 1016,6 hPa 0,0 l/m 0,0 km/h (0 Bft) NO 42 0 min 0,000 mm 0,0 UV-I 0 W/m 13,1 C 17,8 C 0,0 km/h (0 Bft) 0,00 %
13.08.2015 03:58 17,7 C 74 % 1016,6 hPa 0,0 l/m 0,0 km/h (0 Bft) NO 44 0 min 0,000 mm 0,0 UV-I 0 W/m 13,0 C 17,7 C 0,0 km/h (0 Bft) 0,00 %
13.08.2015 04:03 17,6 C 74 % 1016,5 hPa 0,0 l/m 0,0 km/h (0 Bft) NO 49 0 min 0,000 mm 0,0 UV-I 0 W/m 12,9 C 17,6 C 0,0 km/h (0 Bft) 0,00 %
13.08.2015 04:08 17,6 C 74 % 1016,6 hPa 0,0 l/m 0,0 km/h (0 Bft) NO 44 0 min 0,000 mm 0,0 UV-I 0 W/m 12,9 C 17,6 C 0,0 km/h (0 Bft) 0,00 %
13.08.2015 04:13 17,5 C 74 % 1016,7 hPa 0,0 l/m 0,0 km/h (0 Bft) NO 42 0 min 0,000 mm 0,0 UV-I 0 W/m 12,8 C 17,5 C 0,0 km/h (0 Bft) 0,00 %
13.08.2015 04:18 17,5 C 74 % 1016,6 hPa 0,0 l/m 0,0 km/h (0 Bft) NO 47 0 min 0,000 mm 0,0 UV-I 0 W/m 12,8 C 17,5 C 0,0 km/h (0 Bft) 0,00 %
13.08.2015 04:23 17,4 C 75 % 1016,6 hPa 0,0 l/m 0,0 km/h (0 Bft) NO 44 0 min 0,000 mm 0,0 UV-I 0 W/m 12,9 C 17,4 C 0,0 km/h (0 Bft) 0,00 %
13.08.2015 04:28 17,4 C 75 % 1016,6 hPa 0,0 l/m 0,0 km/h (0 Bft) NO 44 0 min 0,000 mm 0,0 UV-I 0 W/m 12,9 C 17,4 C 0,0 km/h (0 Bft) 0,00 %
13.08.2015 04:33 17,3 C 76 % 1016,6 hPa 0,0 l/m 0,0 km/h (0 Bft) NO 44 0 min 0,000 mm 0,0 UV-I 0 W/m 13,0 C 17,3 C 0,0 km/h (0 Bft) 0,00 %
13.08.2015 04:38 17,2 C 76 % 1016,7 hPa 0,0 l/m 0,0 km/h (0 Bft) NO 49 0 min 0,000 mm 0,0 UV-I 0 W/m 12,9 C 17,2 C 0,0 km/h (0 Bft) 0,00 %
13.08.2015 04:43 17,1 C 76 % 1016,5 hPa 0,0 l/m 0,0 km/h (0 Bft) NO 48 0 min 0,000 mm 0,0 UV-I 0 W/m 12,8 C 17,1 C 0,0 km/h (0 Bft) 0,00 %
13.08.2015 04:48 17,1 C 77 % 1016,6 hPa 0,0 l/m 0,0 km/h (0 Bft) NO 44 0 min 0,000 mm 0,0 UV-I 0 W/m 13,0 C 17,1 C 0,0 km/h (0 Bft) 0,00 %
13.08.2015 04:53 17,0 C 77 % 1016,7 hPa 0,0 l/m 0,0 km/h (0 Bft) NO 49 0 min 0,000 mm 0,0 UV-I 0 W/m 12,9 C 17,0 C 0,0 km/h (0 Bft) 0,00 %
13.08.2015 04:58 17,0 C 78 % 1016,7 hPa 0,0 l/m 0,0 km/h (0 Bft) NO 48 0 min 0,000 mm 0,0 UV-I 0 W/m 13,1 C 17,0 C 0,0 km/h (0 Bft) 0,00 %
13.08.2015 05:03 16,9 C 78 % 1016,6 hPa 0,0 l/m 0,0 km/h (0 Bft) NO 48 0 min 0,000 mm 0,0 UV-I 0 W/m 13,0 C 16,9 C 0,0 km/h (0 Bft) 0,00 %
13.08.2015 05:08 16,8 C 78 % 1016,7 hPa 0,0 l/m 0,0 km/h (0 Bft) NO 47 0 min 0,000 mm 0,0 UV-I 0 W/m 12,9 C 16,8 C 0,0 km/h (0 Bft) 0,00 %
13.08.2015 05:13 16,6 C 78 % 1016,7 hPa 0,0 l/m 0,0 km/h (0 Bft) NO 51 0 min 0,000 mm 0,0 UV-I 0 W/m 12,7 C 16,6 C 0,0 km/h (0 Bft) 0,00 %
13.08.2015 05:18 16,5 C 78 % 1016,6 hPa 0,0 l/m 0,0 km/h (0 Bft) NO 50 0 min 0,000 mm 0,0 UV-I 0 W/m 12,6 C 16,5 C 0,0 km/h (0 Bft) 0,00 %
13.08.2015 05:23 16,4 C 78 % 1016,6 hPa 0,0 l/m 0,0 km/h (0 Bft) NO 48 0 min 0,000 mm 0,0 UV-I 0 W/m 12,6 C 16,4 C 0,0 km/h (0 Bft) 0,00 %
13.08.2015 05:28 16,4 C 78 % 1016,6 hPa 0,0 l/m 0,0 km/h (0 Bft) NO 48 0 min 0,000 mm 0,0 UV-I 0 W/m 12,6 C 16,4 C 0,0 km/h (0 Bft) 0,00 %
13.08.2015 05:33 16,4 C 77 % 1016,5 hPa 0,0 l/m 0,0 km/h (0 Bft) NO 44 0 min 0,000 mm 0,0 UV-I 0 W/m 12,4 C 16,4 C 0,0 km/h (0 Bft) 0,00 %
13.08.2015 05:38 16,5 C 76 % 1016,8 hPa 0,0 l/m 0,0 km/h (0 Bft) NO 56 0 min 0,000 mm 0,0 UV-I 0 W/m 12,3 C 16,5 C 0,0 km/h (0 Bft) 0,00 %
13.08.2015 05:43 16,6 C 77 % 1016,6 hPa 0,0 l/m 0,0 km/h (0 Bft) NO 39 0 min 0,000 mm 0,0 UV-I 0 W/m 12,5 C 16,6 C 0,0 km/h (0 Bft) 0,00 %
13.08.2015 05:48 16,7 C 76 % 1016,6 hPa 0,0 l/m 0,0 km/h (0 Bft) NO 45 0 min 0,000 mm 0,0 UV-I 0 W/m 12,4 C 16,7 C 0,0 km/h (0 Bft) 0,00 %
13.08.2015 05:53 16,8 C 77 % 1016,6 hPa 0,0 l/m 0,0 km/h (0 Bft) NO 41 0 min 0,000 mm 0,0 UV-I 0 W/m 12,7 C 16,8 C 0,0 km/h (0 Bft) 0,00 %
13.08.2015 05:58 16,8 C 77 % 1016,7 hPa 0,0 l/m 0,0 km/h (0 Bft) NO 44 0 min 0,000 mm 0,0 UV-I 0 W/m 12,7 C 16,8 C 0,0 km/h (0 Bft) 0,00 %
13.08.2015 06:03 16,8 C 77 % 1016,7 hPa 0,0 l/m 0,0 km/h (0 Bft) NO 43 0 min 0,000 mm 0,0 UV-I 3 W/m 12,7 C 16,8 C 0,0 km/h (0 Bft) 0,00 %
13.08.2015 06:08 16,7 C 77 % 1016,7 hPa 0,0 l/m 0,0 km/h (0 Bft) NO 41 0 min 0,000 mm 0,0 UV-I 7 W/m 12,6 C 16,7 C 0,0 km/h (0 Bft) 0,00 %
13.08.2015 06:13 16,7 C 78 % 1016,8 hPa 0,0 l/m 0,0 km/h (0 Bft) NO 42 0 min 0,000 mm 0,0 UV-I 16 W/m 12,8 C 16,7 C 0,0 km/h (0 Bft) 0,00 %
13.08.2015 06:18 16,7 C 78 % 1016,6 hPa 0,0 l/m 0,0 km/h (0 Bft) N-NO 27 0 min 0,000 mm 0,0 UV-I 23 W/m 12,8 C 16,7 C 0,0 km/h (0 Bft) 0,00 %
13.08.2015 06:23 16,7 C 78 % 1016,6 hPa 0,0 l/m 0,0 km/h (0 Bft) N 353 0 min 0,000 mm 0,0 UV-I 30 W/m 12,8 C 16,7 C 0,0 km/h (0 Bft) 0,00 %
13.08.2015 06:28 16,9 C 77 % 1016,7 hPa 0,0 l/m 0,0 km/h (0 Bft) N-NO 31 0 min 0,000 mm 0,0 UV-I 39 W/m 12,8 C 16,9 C 0,0 km/h (0 Bft) 0,00 %
13.08.2015 06:33 17,1 C 76 % 1016,8 hPa 0,0 l/m 0,0 km/h (0 Bft) NO 44 0 min 0,000 mm 0,0 UV-I 48 W/m 12,8 C 17,1 C 0,0 km/h (0 Bft) 0,00 %
13.08.2015 06:38 17,3 C 76 % 1016,8 hPa 0,0 l/m 0,0 km/h (0 Bft) NO 51 5 min 0,000 mm 0,0 UV-I 58 W/m 13,0 C 17,3 C 0,0 km/h (0 Bft) 0,00 %
13.08.2015 06:43 17,6 C 74 % 1016,8 hPa 0,0 l/m 0,0 km/h (0 Bft) NO 40 5 min 0,000 mm 0,0 UV-I 71 W/m 12,9 C 17,6 C 0,0 km/h (0 Bft) 0,00 %
13.08.2015 06:48 18,0 C 73 % 1016,7 hPa 0,0 l/m 0,0 km/h (0 Bft) NO 41 5 min 0,000 mm 0,0 UV-I 85 W/m 13,1 C 18,0 C 0,0 km/h (0 Bft) 0,00 %
13.08.2015 06:53 18,4 C 71 % 1016,8 hPa 0,0 l/m 0,0 km/h (0 Bft) NO 43 5 min 0,000 mm 0,0 UV-I 99 W/m 13,0 C 18,4 C 0,0 km/h (0 Bft) 0,00 %
13.08.2015 06:58 18,9 C 70 % 1016,7 hPa 0,0 l/m 0,0 km/h (0 Bft) NO 45 5 min 0,000 mm 0,0 UV-I 113 W/m 13,3 C 18,9 C 0,0 km/h (0 Bft) 0,00 %
13.08.2015 07:03 19,3 C 68 % 1016,7 hPa 0,0 l/m 0,0 km/h (0 Bft) O-NO 62 5 min 0,000 mm 0,0 UV-I 125 W/m 13,2 C 19,3 C 0,0 km/h (0 Bft) 0,00 %
13.08.2015 07:08 19,7 C 66 % 1016,7 hPa 0,0 l/m 0,0 km/h (0 Bft) NO 42 5 min 0,000 mm 0,0 UV-I 138 W/m 13,2 C 19,7 C 0,0 km/h (0 Bft) 0,00 %
13.08.2015 07:13 20,1 C 64 % 1016,9 hPa 0,0 l/m 0,0 km/h (0 Bft) N 355 5 min 0,000 mm 0,0 UV-I 148 W/m 13,1 C 20,1 C 0,0 km/h (0 Bft) 0,00 %
13.08.2015 07:18 20,6 C 62 % 1016,8 hPa 0,0 l/m 0,0 km/h (0 Bft) NO 40 5 min 0,000 mm 1,0 UV-I 159 W/m 13,1 C 20,6 C 0,0 km/h (0 Bft) 0,00 %
13.08.2015 07:23 21,0 C 60 % 1016,7 hPa 0,0 l/m 0,0 km/h (0 Bft) NO 44 5 min 0,000 mm 1,0 UV-I 170 W/m 12,9 C 21,0 C 0,0 km/h (0 Bft) 0,00 %
13.08.2015 07:28 21,4 C 59 % 1016,8 hPa 0,0 l/m 0,0 km/h (0 Bft) NO 42 5 min 0,000 mm 1,0 UV-I 179 W/m 13,0 C 21,4 C 0,0 km/h (0 Bft) 0,00 %
13.08.2015 07:33 21,9 C 59 % 1016,7 hPa 0,0 l/m 0,0 km/h (0 Bft) NO 42 5 min 0,000 mm 1,0 UV-I 188 W/m 13,5 C 21,9 C 0,0 km/h (0 Bft) 0,00 %
13.08.2015 07:38 22,5 C 56 % 1016,8 hPa 0,0 l/m 0,0 km/h (0 Bft) NO 36 5 min 0,000 mm 1,0 UV-I 195 W/m 13,3 C 22,5 C 0,0 km/h (0 Bft) 0,00 %
13.08.2015 07:43 23,1 C 55 % 1016,7 hPa 0,0 l/m 0,0 km/h (0 Bft) NO 43 5 min 0,000 mm 1,0 UV-I 204 W/m 13,6 C 23,1 C 0,0 km/h (0 Bft) 0,00 %
13.08.2015 07:48 23,7 C 53 % 1016,5 hPa 0,0 l/m 0,0 km/h (0 Bft) O-NO 63 5 min 0,000 mm 1,0 UV-I 212 W/m 13,5 C 23,7 C 0,0 km/h (0 Bft) 0,00 %
13.08.2015 07:53 24,3 C 51 % 1016,5 hPa 0,0 l/m 1,8 km/h (1 Bft) O 88 5 min 0,000 mm 1,0 UV-I 220 W/m 13,5 C 24,3 C 4,0 km/h (1 Bft) 0,00 %
13.08.2015 07:58 24,5 C 51 % 1016,8 hPa 0,0 l/m 0,0 km/h (0 Bft) NO 50 5 min 0,000 mm 1,0 UV-I 226 W/m 13,7 C 24,5 C 0,0 km/h (0 Bft) 0,00 %
13.08.2015 08:03 24,4 C 51 % 1016,7 hPa 0,0 l/m 0,4 km/h (0 Bft) N-NO 33 5 min 0,000 mm 1,0 UV-I 233 W/m 13,6 C 24,4 C 4,0 km/h (1 Bft) 0,00 %
13.08.2015 08:08 24,4 C 51 % 1016,8 hPa 0,0 l/m 0,0 km/h (0 Bft) O-SO 106 5 min 0,000 mm 1,0 UV-I 243 W/m 13,6 C 24,4 C 0,0 km/h (0 Bft) 0,00 %
13.08.2015 08:13 24,6 C 49 % 1016,7 hPa 0,0 l/m 0,0 km/h (0 Bft) O-SO 104 5 min 0,000 mm 1,0 UV-I 253 W/m 13,2 C 24,6 C 0,0 km/h (0 Bft) 0,00 %
13.08.2015 08:19 24,9 C 51 % 1016,9 hPa 0,0 l/m 0,0 km/h (0 Bft) O-NO 62 6 min 0,000 mm 1,0 UV-I 262 W/m 14,1 C 24,9 C 0,0 km/h (0 Bft) 0,00 %
13.08.2015 08:24 25,1 C 49 % 1016,9 hPa 0,0 l/m 4,0 km/h (1 Bft) O-NO 62 5 min 0,000 mm 1,0 UV-I 268 W/m 13,6 C 25,1 C 7,9 km/h (2 Bft) 0,00 %
13.08.2015 08:29 25,3 C 49 % 1017,0 hPa 0,0 l/m 0,0 km/h (0 Bft) O 80 5 min 0,000 mm 1,0 UV-I 274 W/m 13,8 C 25,3 C 0,0 km/h (0 Bft) 0,00 %
13.08.2015 08:34 25,4 C 49 % 1016,8 hPa 0,0 l/m 0,4 km/h (0 Bft) NO 55 5 min 0,000 mm 1,0 UV-I 282 W/m 13,9 C 25,4 C 4,0 km/h (1 Bft) 0,00 %
13.08.2015 08:39 25,4 C 49 % 1016,8 hPa 0,0 l/m 0,0 km/h (0 Bft) SO 131 5 min 0,000 mm 1,0 UV-I 291 W/m 13,9 C 25,4 C 0,0 km/h (0 Bft) 0,00 %
13.08.2015 08:44 25,5 C 48 % 1016,8 hPa 0,0 l/m 0,0 km/h (0 Bft) O-NO 66 5 min 0,000 mm 1,0 UV-I 302 W/m 13,7 C 25,5 C 0,0 km/h (0 Bft) 0,00 %
13.08.2015 08:49 25,8 C 48 % 1017,0 hPa 0,0 l/m 0,0 km/h (0 Bft) O-NO 77 5 min 0,000 mm 1,0 UV-I 311 W/m 13,9 C 25,8 C 0,0 km/h (0 Bft) 0,00 %
13.08.2015 08:54 26,1 C 45 % 1016,8 hPa 0,0 l/m 0,0 km/h (0 Bft) NO 47 5 min 0,000 mm 1,0 UV-I 319 W/m 13,2 C 26,1 C 0,0 km/h (0 Bft) 0,00 %
13.08.2015 08:59 26,3 C 47 % 1016,8 hPa 0,0 l/m 0,0 km/h (0 Bft) O-NO 65 5 min 0,000 mm 1,0 UV-I 326 W/m 14,1 C 26,3 C 0,0 km/h (0 Bft) 0,00 %
13.08.2015 09:04 26,2 C 47 % 1016,8 hPa 0,0 l/m 0,0 km/h (0 Bft) O-NO 65 5 min 0,000 mm 1,0 UV-I 336 W/m 14,0 C 26,2 C 0,0 km/h (0 Bft) 0,00 %
13.08.2015 09:09 26,2 C 47 % 1016,7 hPa 0,0 l/m 0,0 km/h (0 Bft) O-NO 57 5 min 0,000 mm 1,0 UV-I 345 W/m 14,0 C 26,2 C 0,0 km/h (0 Bft) 0,00 %
13.08.2015 09:14 26,2 C 46 % 1016,7 hPa 0,0 l/m 0,0 km/h (0 Bft) SO 129 5 min 0,000 mm 1,0 UV-I 353 W/m 13,6 C 26,2 C 0,0 km/h (0 Bft) 0,00 %
13.08.2015 09:19 26,2 C 46 % 1016,6 hPa 0,0 l/m 0,0 km/h (0 Bft) NO 45 5 min 0,000 mm 1,0 UV-I 363 W/m 13,6 C 26,2 C 0,0 km/h (0 Bft) 0,00 %
13.08.2015 09:24 26,4 C 46 % 1016,6 hPa 0,0 l/m 0,0 km/h (0 Bft) O-SO 104 5 min 0,000 mm 2,0 UV-I 367 W/m 13,8 C 26,4 C 0,0 km/h (0 Bft) 0,00 %
13.08.2015 09:29 26,7 C 46 % 1016,7 hPa 0,0 l/m 0,0 km/h (0 Bft) O-SO 114 5 min 0,000 mm 2,0 UV-I 386 W/m 14,1 C 26,7 C 0,0 km/h (0 Bft) 0,00 %
13.08.2015 09:34 26,8 C 46 % 1016,7 hPa 0,0 l/m 9,0 km/h (2 Bft) O 81 5 min 0,000 mm 2,0 UV-I 397 W/m 14,2 C 26,3 C 15,8 km/h (3 Bft) 0,00 %
13.08.2015 09:39 26,9 C 45 % 1016,7 hPa 0,0 l/m 0,0 km/h (0 Bft) O-SO 102 5 min 0,000 mm 2,0 UV-I 407 W/m 13,9 C 26,9 C 0,0 km/h (0 Bft) 0,00 %
13.08.2015 09:44 27,0 C 45 % 1016,6 hPa 0,0 l/m 0,0 km/h (0 Bft) O-SO 111 5 min 0,000 mm 2,0 UV-I 417 W/m 14,0 C 27,0 C 0,0 km/h (0 Bft) 0,00 %
13.08.2015 09:49 27,0 C 45 % 1016,5 hPa 0,0 l/m 0,0 km/h (0 Bft) SO 129 5 min 0,000 mm 2,0 UV-I 430 W/m 14,0 C 27,0 C 0,0 km/h (0 Bft) 0,00 %
13.08.2015 09:54 27,1 C 45 % 1016,5 hPa 0,0 l/m 0,0 km/h (0 Bft) N-NW 345 5 min 0,000 mm 2,0 UV-I 443 W/m 14,1 C 27,1 C 0,0 km/h (0 Bft) 0,00 %
13.08.2015 09:59 27,3 C 45 % 1016,5 hPa 0,0 l/m 0,0 km/h (0 Bft) O 79 5 min 0,000 mm 2,0 UV-I 455 W/m 14,3 C 27,3 C 0,0 km/h (0 Bft) 0,00 %
13.08.2015 10:04 27,6 C 44 % 1016,5 hPa 0,0 l/m 2,9 km/h (1 Bft) O 80 5 min 0,000 mm 2,0 UV-I 468 W/m 14,2 C 27,6 C 11,9 km/h (2 Bft) 0,00 %
13.08.2015 10:09 27,7 C 45 % 1016,4 hPa 0,0 l/m 0,0 km/h (0 Bft) SO 133 5 min 0,000 mm 2,0 UV-I 477 W/m 14,7 C 27,7 C 0,0 km/h (0 Bft) 0,00 %
13.08.2015 10:14 27,7 C 45 % 1016,4 hPa 0,0 l/m 5,4 km/h (1 Bft) O 100 5 min 0,000 mm 2,0 UV-I 488 W/m 14,7 C 27,7 C 7,9 km/h (2 Bft) 0,00 %
13.08.2015 10:19 27,9 C 44 % 1016,6 hPa 0,0 l/m 0,0 km/h (0 Bft) O 101 5 min 0,000 mm 2,0 UV-I 502 W/m 14,5 C 27,9 C 0,0 km/h (0 Bft) 0,00 %
13.08.2015 10:24 28,2 C 43 % 1016,5 hPa 0,0 l/m 0,0 km/h (0 Bft) NO 47 5 min 0,000 mm 2,0 UV-I 513 W/m 14,4 C 28,2 C 0,0 km/h (0 Bft) 0,00 %
13.08.2015 10:29 28,6 C 41 % 1016,6 hPa 0,0 l/m 4,7 km/h (1 Bft) O-SO 103 5 min 0,000 mm 2,0 UV-I 527 W/m 14,0 C 28,6 C 7,9 km/h (2 Bft) 0,00 %
13.08.2015 10:34 28,9 C 41 % 1016,5 hPa 0,0 l/m 9,7 km/h (2 Bft) O 85 5 min 0,000 mm 2,0 UV-I 542 W/m 14,3 C 28,5 C 11,9 km/h (2 Bft) 0,00 %
13.08.2015 10:39 29,2 C 42 % 1016,6 hPa 0,0 l/m 7,9 km/h (2 Bft) O-SO 110 5 min 0,000 mm 2,0 UV-I 555 W/m 14,9 C 29,0 C 11,9 km/h (2 Bft) 0,00 %
13.08.2015 10:44 29,3 C 41 % 1016,4 hPa 0,0 l/m 5,8 km/h (2 Bft) O-SO 116 5 min 0,000 mm 2,0 UV-I 567 W/m 14,7 C 29,3 C 7,9 km/h (2 Bft) 0,00 %
13.08.2015 10:49 29,4 C 41 % 1016,3 hPa 0,0 l/m 5,8 km/h (2 Bft) S-SW 193 5 min 0,000 mm 2,0 UV-I 586 W/m 14,7 C 29,4 C 7,9 km/h (2 Bft) 0,00 %
13.08.2015 10:54 29,5 C 40 % 1016,3 hPa 0,0 l/m 9,7 km/h (2 Bft) SO 131 5 min 0,000 mm 3,0 UV-I 595 W/m 14,5 C 29,2 C 15,8 km/h (3 Bft) 0,00 %
13.08.2015 10:59 29,7 C 40 % 1016,3 hPa 0,0 l/m 5,4 km/h (1 Bft) O-NO 63 5 min 0,000 mm 3,0 UV-I 612 W/m 14,6 C 29,7 C 7,9 km/h (2 Bft) 0,00 %
13.08.2015 11:04 29,8 C 39 % 1016,1 hPa 0,0 l/m 6,5 km/h (2 Bft) SO 146 5 min 0,000 mm 3,0 UV-I 625 W/m 14,3 C 29,8 C 7,9 km/h (2 Bft) 0,00 %
13.08.2015 11:09 29,9 C 39 % 1016,0 hPa 0,0 l/m 5,4 km/h (1 Bft) NO 54 5 min 0,000 mm 3,0 UV-I 642 W/m 14,4 C 29,9 C 11,9 km/h (2 Bft) 0,00 %
13.08.2015 11:14 30,0 C 39 % 1016,0 hPa 0,0 l/m 13,0 km/h (3 Bft) SO 129 5 min 0,000 mm 3,0 UV-I 657 W/m 14,5 C 29,5 C 19,8 km/h (3 Bft) 0,00 %
13.08.2015 11:19 30,2 C 39 % 1015,9 hPa 0,0 l/m 4,0 km/h (1 Bft) O 97 5 min 0,000 mm 3,0 UV-I 668 W/m 14,7 C 30,2 C 7,9 km/h (2 Bft) 0,00 %
13.08.2015 11:24 30,4 C 37 % 1015,9 hPa 0,0 l/m 0,4 km/h (0 Bft) O-SO 102 5 min 0,000 mm 3,0 UV-I 680 W/m 14,0 C 30,4 C 4,0 km/h (1 Bft) 0,00 %
13.08.2015 11:29 30,7 C 36 % 1015,8 hPa 0,0 l/m 0,7 km/h (0 Bft) NO 42 5 min 0,000 mm 3,0 UV-I 697 W/m 13,9 C 30,7 C 4,0 km/h (1 Bft) 0,00 %
13.08.2015 11:34 30,9 C 36 % 1015,9 hPa 0,0 l/m 9,7 km/h (2 Bft) O 81 5 min 0,000 mm 3,0 UV-I 708 W/m 14,1 C 30,7 C 11,9 km/h (2 Bft) 0,00 %
13.08.2015 11:39 30,8 C 37 % 1015,8 hPa 0,0 l/m 4,3 km/h (1 Bft) O 79 5 min 0,000 mm 3,0 UV-I 721 W/m 14,4 C 30,8 C 7,9 km/h (2 Bft) 0,00 %
13.08.2015 11:44 30,7 C 35 % 1015,7 hPa 0,0 l/m 6,5 km/h (2 Bft) O-NO 62 5 min 0,000 mm 3,0 UV-I 730 W/m 13,5 C 30,7 C 7,9 km/h (2 Bft) 0,00 %
13.08.2015 11:49 31,0 C 34 % 1015,5 hPa 0,0 l/m 2,9 km/h (1 Bft) O-NO 73 5 min 0,000 mm 3,0 UV-I 736 W/m 13,3 C 31,0 C 4,0 km/h (1 Bft) 0,00 %
13.08.2015 11:54 31,2 C 34 % 1015,5 hPa 0,0 l/m 3,2 km/h (1 Bft) S-SO 168 5 min 0,000 mm 3,0 UV-I 743 W/m 13,4 C 31,2 C 7,9 km/h (2 Bft) 0,00 %
13.08.2015 11:59 31,2 C 33 % 1015,4 hPa 0,0 l/m 11,9 km/h (2 Bft) S-SO 148 5 min 0,000 mm 4,0 UV-I 748 W/m 13,0 C 30,9 C 19,8 km/h (3 Bft) 0,00 %
13.08.2015 12:04 31,2 C 34 % 1015,4 hPa 0,0 l/m 15,8 km/h (3 Bft) S-SO 156 5 min 0,000 mm 4,0 UV-I 746 W/m 13,4 C 30,8 C 24,1 km/h (4 Bft) 0,00 %
13.08.2015 12:09 31,1 C 34 % 1015,4 hPa 0,0 l/m 10,8 km/h (2 Bft) SO 139 5 min 0,000 mm 4,0 UV-I 757 W/m 13,4 C 30,9 C 11,9 km/h (2 Bft) 0,00 %
13.08.2015 12:14 31,0 C 32 % 1015,2 hPa 0,0 l/m 8,3 km/h (2 Bft) O-NO 64 5 min 0,000 mm 4,0 UV-I 762 W/m 12,3 C 30,9 C 11,9 km/h (2 Bft) 0,00 %
13.08.2015 12:19 31,2 C 33 % 1015,2 hPa 0,0 l/m 2,2 km/h (1 Bft) N 3 5 min 0,000 mm 4,0 UV-I 768 W/m 13,0 C 31,2 C 4,0 km/h (1 Bft) 0,00 %
13.08.2015 12:24 31,5 C 31 % 1015,1 hPa 0,0 l/m 2,2 km/h (1 Bft) O-SO 104 5 min 0,000 mm 4,0 UV-I 777 W/m 12,3 C 31,5 C 4,0 km/h (1 Bft) 0,00 %
13.08.2015 12:29 31,7 C 31 % 1015,1 hPa 0,0 l/m 3,2 km/h (1 Bft) NO 47 5 min 0,000 mm 4,0 UV-I 778 W/m 12,5 C 31,7 C 7,9 km/h (2 Bft) 0,00 %
13.08.2015 12:34 31,9 C 32 % 1014,9 hPa 0,0 l/m 2,9 km/h (1 Bft) NO 48 5 min 0,000 mm 4,0 UV-I 786 W/m 13,1 C 31,9 C 4,0 km/h (1 Bft) 0,00 %
13.08.2015 12:39 31,9 C 32 % 1015,0 hPa 0,0 l/m 7,9 km/h (2 Bft) O-SO 107 5 min 0,000 mm 4,0 UV-I 798 W/m 13,1 C 31,8 C 11,9 km/h (2 Bft) 0,00 %
13.08.2015 12:44 31,8 C 34 % 1014,9 hPa 0,0 l/m 5,8 km/h (2 Bft) W-SW 256 5 min 0,000 mm 4,0 UV-I 804 W/m 14,0 C 31,8 C 7,9 km/h (2 Bft) 0,00 %
13.08.2015 12:49 32,0 C 34 % 1014,6 hPa 0,0 l/m 7,9 km/h (2 Bft) O-SO 112 5 min 0,000 mm 4,0 UV-I 810 W/m 14,1 C 32,0 C 11,9 km/h (2 Bft) 0,00 %
13.08.2015 12:54 32,2 C 33 % 1014,7 hPa 0,0 l/m 4,0 km/h (1 Bft) NO 48 5 min 0,000 mm 4,0 UV-I 812 W/m 13,9 C 32,2 C 4,0 km/h (1 Bft) 0,00 %
13.08.2015 12:59 32,1 C 33 % 1014,6 hPa 0,0 l/m 9,0 km/h (2 Bft) SO 128 5 min 0,000 mm 4,0 UV-I 809 W/m 13,8 C 32,0 C 11,9 km/h (2 Bft) 0,00 %
13.08.2015 13:04 32,0 C 33 % 1014,7 hPa 0,0 l/m 4,3 km/h (1 Bft) S-SO 147 5 min 0,000 mm 4,0 UV-I 820 W/m 13,7 C 32,0 C 7,9 km/h (2 Bft) 0,00 %
13.08.2015 13:09 32,2 C 33 % 1014,5 hPa 0,0 l/m 1,8 km/h (1 Bft) O 100 5 min 0,000 mm 4,0 UV-I 821 W/m 13,9 C 32,2 C 7,9 km/h (2 Bft) 0,00 %
13.08.2015 13:14 32,3 C 33 % 1014,5 hPa 0,0 l/m 6,8 km/h (2 Bft) O-SO 109 5 min 0,000 mm 4,0 UV-I 828 W/m 13,9 C 32,3 C 11,9 km/h (2 Bft) 0,00 %
13.08.2015 13:19 32,5 C 32 % 1014,4 hPa 0,0 l/m 6,5 km/h (2 Bft) O 94 5 min 0,000 mm 4,0 UV-I 846 W/m 13,6 C 32,5 C 15,8 km/h (3 Bft) 0,00 %
13.08.2015 13:24 32,6 C 32 % 1014,2 hPa 0,0 l/m 3,2 km/h (1 Bft) NO 48 5 min 0,000 mm 4,0 UV-I 840 W/m 13,7 C 32,6 C 7,9 km/h (2 Bft) 0,00 %
13.08.2015 13:29 32,6 C 32 % 1014,2 hPa 0,0 l/m 4,3 km/h (1 Bft) O 91 5 min 0,000 mm 4,0 UV-I 849 W/m 13,7 C 32,6 C 7,9 km/h (2 Bft) 0,00 %
13.08.2015 13:34 32,6 C 30 % 1014,1 hPa 0,0 l/m 3,2 km/h (1 Bft) O-SO 110 5 min 0,000 mm 4,0 UV-I 842 W/m 12,7 C 32,6 C 7,9 km/h (2 Bft) 0,00 %
13.08.2015 13:39 32,7 C 31 % 1013,8 hPa 0,0 l/m 4,7 km/h (1 Bft) N-NW 332 5 min 0,000 mm 4,0 UV-I 839 W/m 13,3 C 32,7 C 7,9 km/h (2 Bft) 0,00 %
13.08.2015 13:44 32,9 C 26 % 1013,8 hPa 0,0 l/m 4,7 km/h (1 Bft) O-NO 68 5 min 0,000 mm 4,0 UV-I 850 W/m 10,8 C 32,9 C 7,9 km/h (2 Bft) 0,00 %
13.08.2015 13:49 33,0 C 28 % 1013,6 hPa 0,0 l/m 7,2 km/h (2 Bft) O-NO 67 5 min 0,000 mm 4,0 UV-I 847 W/m 12,0 C 33,0 C 11,9 km/h (2 Bft) 0,00 %
13.08.2015 13:54 33,1 C 27 % 1013,5 hPa 0,0 l/m 6,8 km/h (2 Bft) NO 45 5 min 0,000 mm 4,0 UV-I 856 W/m 11,6 C 33,1 C 11,9 km/h (2 Bft) 0,00 %
13.08.2015 13:59 33,2 C 25 % 1013,4 hPa 0,0 l/m 12,2 km/h (2 Bft) O 90 5 min 0,000 mm 4,0 UV-I 868 W/m 10,5 C 33,2 C 15,8 km/h (3 Bft) 0,00 %
13.08.2015 14:04 33,3 C 24 % 1013,5 hPa 0,0 l/m 0,4 km/h (0 Bft) O-NO 57 5 min 0,000 mm 4,0 UV-I 875 W/m 10,0 C 33,3 C 4,0 km/h (1 Bft) 0,00 %
13.08.2015 14:09 33,4 C 24 % 1013,4 hPa 0,0 l/m 14,0 km/h (3 Bft) N-NO 21 5 min 0,000 mm 4,0 UV-I 861 W/m 10,0 C 33,4 C 19,8 km/h (3 Bft) 0,00 %
13.08.2015 14:14 33,5 C 23 % 1013,4 hPa 0,0 l/m 13,0 km/h (3 Bft) SO 143 5 min 0,000 mm 3,0 UV-I 853 W/m 9,5 C 33,5 C 15,8 km/h (3 Bft) 0,00 %
13.08.2015 14:19 33,5 C 22 % 1013,0 hPa 0,0 l/m 13,0 km/h (3 Bft) O 97 5 min 0,000 mm 3,0 UV-I 870 W/m 8,8 C 33,5 C 15,8 km/h (3 Bft) 0,00 %
13.08.2015 14:24 33,7 C 22 % 1013,3 hPa 0,0 l/m 9,4 km/h (2 Bft) SO 130 5 min 0,000 mm 3,0 UV-I 881 W/m 9,0 C 33,7 C 11,9 km/h (2 Bft) 0,00 %
13.08.2015 14:29 33,8 C 23 % 1013,1 hPa 0,0 l/m 5,4 km/h (1 Bft) O-NO 69 5 min 0,000 mm 3,0 UV-I 868 W/m 9,7 C 33,8 C 7,9 km/h (2 Bft) 0,00 %
13.08.2015 14:34 33,8 C 22 % 1013,0 hPa 0,0 l/m 4,7 km/h (1 Bft) O-SO 115 5 min 0,000 mm 3,0 UV-I 868 W/m 9,1 C 33,8 C 7,9 km/h (2 Bft) 0,00 %
13.08.2015 14:39 34,0 C 21 % 1012,9 hPa 0,0 l/m 9,7 km/h (2 Bft) O 96 5 min 0,000 mm 3,0 UV-I 879 W/m 8,6 C 34,0 C 11,9 km/h (2 Bft) 0,00 %
13.08.2015 14:44 34,1 C 21 % 1012,8 hPa 0,0 l/m 5,4 km/h (1 Bft) O-SO 120 5 min 0,000 mm 3,0 UV-I 884 W/m 8,6 C 34,1 C 7,9 km/h (2 Bft) 0,00 %
13.08.2015 14:49 34,2 C 21 % 1012,6 hPa 0,0 l/m 13,3 km/h (3 Bft) O-NO 58 5 min 0,000 mm 3,0 UV-I 890 W/m 8,7 C 34,2 C 19,8 km/h (3 Bft) 0,00 %
13.08.2015 14:54 34,3 C 21 % 1012,6 hPa 0,0 l/m 0,4 km/h (0 Bft) O 90 5 min 0,000 mm 3,0 UV-I 885 W/m 8,8 C 34,3 C 4,0 km/h (1 Bft) 0,00 %
13.08.2015 14:59 34,3 C 21 % 1012,5 hPa 0,0 l/m 3,2 km/h (1 Bft) N-NO 29 5 min 0,000 mm 3,0 UV-I 896 W/m 8,8 C 34,3 C 4,0 km/h (1 Bft) 0,00 %
13.08.2015 15:04 34,5 C 20 % 1012,5 hPa 0,0 l/m 4,0 km/h (1 Bft) N 353 5 min 0,000 mm 3,0 UV-I 894 W/m 8,2 C 34,5 C 7,9 km/h (2 Bft) 0,00 %
13.08.2015 15:09 34,5 C 21 % 1012,4 hPa 0,0 l/m 0,4 km/h (0 Bft) O 95 5 min 0,000 mm 3,0 UV-I 891 W/m 9,0 C 34,5 C 4,0 km/h (1 Bft) 0,00 %
13.08.2015 15:14 34,5 C 21 % 1012,3 hPa 0,0 l/m 7,9 km/h (2 Bft) SO 130 5 min 0,000 mm 3,0 UV-I 892 W/m 9,0 C 34,5 C 11,9 km/h (2 Bft) 0,00 %
13.08.2015 15:19 34,5 C 21 % 1012,3 hPa 0,0 l/m 6,8 km/h (2 Bft) NW 326 5 min 0,000 mm 3,0 UV-I 891 W/m 9,0 C 34,5 C 19,8 km/h (3 Bft) 0,00 %
13.08.2015 15:24 34,4 C 21 % 1012,2 hPa 0,0 l/m 6,5 km/h (2 Bft) O-SO 119 5 min 0,000 mm 3,0 UV-I 876 W/m 8,9 C 34,4 C 7,9 km/h (2 Bft) 0,00 %
13.08.2015 15:29 34,3 C 21 % 1012,2 hPa 0,0 l/m 0,4 km/h (0 Bft) NO 43 5 min 0,000 mm 3,0 UV-I 877 W/m 8,8 C 34,3 C 4,0 km/h (1 Bft) 0,00 %
13.08.2015 15:34 34,5 C 21 % 1012,2 hPa 0,0 l/m 10,4 km/h (2 Bft) O-NO 77 5 min 0,000 mm 3,0 UV-I 855 W/m 9,0 C 34,5 C 11,9 km/h (2 Bft) 0,00 %
13.08.2015 15:39 34,6 C 21 % 1012,1 hPa 0,0 l/m 5,8 km/h (2 Bft) SO 129 5 min 0,000 mm 3,0 UV-I 866 W/m 9,0 C 34,6 C 7,9 km/h (2 Bft) 0,00 %
13.08.2015 15:44 34,5 C 21 % 1012,1 hPa 0,0 l/m 2,9 km/h (1 Bft) O-NO 75 5 min 0,000 mm 2,0 UV-I 857 W/m 9,0 C 34,5 C 7,9 km/h (2 Bft) 0,00 %
13.08.2015 15:49 34,5 C 22 % 1012,1 hPa 0,0 l/m 7,9 km/h (2 Bft) O 98 5 min 0,000 mm 2,0 UV-I 856 W/m 9,7 C 34,5 C 11,9 km/h (2 Bft) 0,00 %
13.08.2015 15:54 34,7 C 22 % 1011,9 hPa 0,0 l/m 9,4 km/h (2 Bft) O 99 5 min 0,000 mm 2,0 UV-I 862 W/m 9,8 C 34,7 C 11,9 km/h (2 Bft) 0,00 %
13.08.2015 15:59 34,6 C 21 % 1011,9 hPa 0,0 l/m 2,2 km/h (1 Bft) S-SW 201 5 min 0,000 mm 2,0 UV-I 820 W/m 9,0 C 34,6 C 4,0 km/h (1 Bft) 0,00 %
13.08.2015 16:04 34,4 C 22 % 1011,7 hPa 0,0 l/m 0,0 km/h (0 Bft) N-NO 19 5 min 0,000 mm 2,0 UV-I 840 W/m 9,6 C 34,4 C 0,0 km/h (0 Bft) 0,00 %
13.08.2015 16:09 34,4 C 22 % 1011,6 hPa 0,0 l/m 4,3 km/h (1 Bft) N 356 5 min 0,000 mm 1,0 UV-I 835 W/m 9,6 C 34,4 C 7,9 km/h (2 Bft) 0,00 %
13.08.2015 16:14 34,6 C 21 % 1011,6 hPa 0,0 l/m 9,7 km/h (2 Bft) SW 226 5 min 0,000 mm 1,0 UV-I 838 W/m 9,0 C 34,6 C 15,8 km/h (3 Bft) 0,00 %
13.08.2015 16:19 34,5 C 21 % 1011,6 hPa 0,0 l/m 4,7 km/h (1 Bft) NW 318 5 min 0,000 mm 1,0 UV-I 819 W/m 9,0 C 34,5 C 7,9 km/h (2 Bft) 0,00 %
13.08.2015 16:24 34,4 C 22 % 1011,7 hPa 0,0 l/m 0,0 km/h (0 Bft) O-NO 61 5 min 0,000 mm 1,0 UV-I 801 W/m 9,6 C 34,4 C 0,0 km/h (0 Bft) 0,00 %
13.08.2015 16:29 34,4 C 22 % 1011,4 hPa 0,0 l/m 3,2 km/h (1 Bft) O-SO 109 5 min 0,000 mm 1,0 UV-I 802 W/m 9,6 C 34,4 C 4,0 km/h (1 Bft) 0,00 %
13.08.2015 16:34 34,5 C 22 % 1011,3 hPa 0,0 l/m 6,5 km/h (2 Bft) SO 140 5 min 0,000 mm 1,0 UV-I 802 W/m 9,7 C 34,5 C 7,9 km/h (2 Bft) 0,00 %
13.08.2015 16:39 34,5 C 22 % 1011,3 hPa 0,0 l/m 7,2 km/h (2 Bft) NO 46 5 min 0,000 mm 1,0 UV-I 784 W/m 9,7 C 34,5 C 11,9 km/h (2 Bft) 0,00 %
13.08.2015 16:44 34,3 C 22 % 1011,2 hPa 0,0 l/m 13,3 km/h (3 Bft) O-SO 116 5 min 0,000 mm 1,0 UV-I 771 W/m 9,5 C 34,3 C 15,8 km/h (3 Bft) 0,00 %
13.08.2015 16:49 34,2 C 23 % 1011,2 hPa 0,0 l/m 11,9 km/h (2 Bft) O-SO 114 5 min 0,000 mm 1,0 UV-I 756 W/m 10,1 C 34,2 C 15,8 km/h (3 Bft) 0,00 %
13.08.2015 16:54 34,0 C 23 % 1011,2 hPa 0,0 l/m 3,2 km/h (1 Bft) O-SO 114 5 min 0,000 mm 1,0 UV-I 754 W/m 9,9 C 34,0 C 7,9 km/h (2 Bft) 0,00 %
13.08.2015 16:59 34,0 C 23 % 1011,1 hPa 0,0 l/m 12,2 km/h (2 Bft) O-SO 114 5 min 0,000 mm 1,0 UV-I 760 W/m 9,9 C 34,0 C 15,8 km/h (3 Bft) 0,00 %
13.08.2015 17:04 34,0 C 23 % 1011,1 hPa 0,0 l/m 5,4 km/h (1 Bft) N-NO 30 5 min 0,000 mm 1,0 UV-I 733 W/m 9,9 C 34,0 C 7,9 km/h (2 Bft) 0,00 %
13.08.2015 17:09 33,9 C 24 % 1011,1 hPa 0,0 l/m 10,8 km/h (2 Bft) O-NO 78 5 min 0,000 mm 1,0 UV-I 708 W/m 10,5 C 33,9 C 15,8 km/h (3 Bft) 0,00 %
13.08.2015 17:14 33,7 C 25 % 1011,1 hPa 0,0 l/m 11,5 km/h (2 Bft) NO 46 5 min 0,000 mm 1,0 UV-I 713 W/m 10,9 C 33,7 C 15,8 km/h (3 Bft) 0,00 %
13.08.2015 17:19 33,7 C 25 % 1011,2 hPa 0,0 l/m 10,8 km/h (2 Bft) O-NO 65 5 min 0,000 mm 1,0 UV-I 708 W/m 10,9 C 33,7 C 15,8 km/h (3 Bft) 0,00 %
13.08.2015 17:24 33,7 C 25 % 1011,0 hPa 0,0 l/m 10,4 km/h (2 Bft) O 93 5 min 0,000 mm 1,0 UV-I 694 W/m 10,9 C 33,7 C 11,9 km/h (2 Bft) 0,00 %
13.08.2015 17:29 33,8 C 26 % 1011,0 hPa 0,0 l/m 7,9 km/h (2 Bft) SO 135 5 min 0,000 mm 1,0 UV-I 689 W/m 11,6 C 33,8 C 11,9 km/h (2 Bft) 0,00 %
13.08.2015 17:34 33,9 C 24 % 1011,1 hPa 0,0 l/m 9,0 km/h (2 Bft) O-SO 117 5 min 0,000 mm 1,0 UV-I 669 W/m 10,5 C 33,9 C 11,9 km/h (2 Bft) 0,00 %
13.08.2015 17:39 33,8 C 25 % 1010,9 hPa 0,0 l/m 9,0 km/h (2 Bft) W-SW 256 5 min 0,000 mm 1,0 UV-I 654 W/m 11,0 C 33,8 C 15,8 km/h (3 Bft) 0,00 %
13.08.2015 17:44 33,6 C 26 % 1011,0 hPa 0,0 l/m 3,2 km/h (1 Bft) O-SO 109 5 min 0,000 mm 1,0 UV-I 640 W/m 11,4 C 33,6 C 7,9 km/h (2 Bft) 0,00 %
13.08.2015 17:49 33,5 C 25 % 1011,0 hPa 0,0 l/m 4,3 km/h (1 Bft) SO 125 5 min 0,000 mm 1,0 UV-I 628 W/m 10,7 C 33,5 C 7,9 km/h (2 Bft) 0,00 %
13.08.2015 17:54 33,5 C 25 % 1011,0 hPa 0,0 l/m 11,5 km/h (2 Bft) O 101 5 min 0,000 mm 1,0 UV-I 612 W/m 10,7 C 33,5 C 11,9 km/h (2 Bft) 0,00 %
13.08.2015 17:59 33,5 C 25 % 1010,9 hPa 0,0 l/m 4,3 km/h (1 Bft) NO 45 5 min 0,000 mm 1,0 UV-I 592 W/m 10,7 C 33,5 C 7,9 km/h (2 Bft) 0,00 %
13.08.2015 18:04 33,5 C 25 % 1010,9 hPa 0,0 l/m 6,8 km/h (2 Bft) S-SO 147 5 min 0,000 mm 1,0 UV-I 565 W/m 10,7 C 33,5 C 7,9 km/h (2 Bft) 0,00 %
13.08.2015 18:09 33,3 C 26 % 1010,9 hPa 0,0 l/m 3,2 km/h (1 Bft) O 85 5 min 0,000 mm 1,0 UV-I 551 W/m 11,2 C 33,3 C 7,9 km/h (2 Bft) 0,00 %
13.08.2015 18:14 33,2 C 26 % 1010,8 hPa 0,0 l/m 11,9 km/h (2 Bft) O-SO 122 5 min 0,000 mm 1,0 UV-I 532 W/m 11,1 C 33,2 C 15,8 km/h (3 Bft) 0,00 %
13.08.2015 18:19 33,1 C 27 % 1010,8 hPa 0,0 l/m 9,4 km/h (2 Bft) O-NO 71 5 min 0,000 mm 1,0 UV-I 525 W/m 11,6 C 33,1 C 19,8 km/h (3 Bft) 0,00 %
13.08.2015 18:24 32,9 C 26 % 1010,9 hPa 0,0 l/m 0,7 km/h (0 Bft) S 181 5 min 0,000 mm 1,0 UV-I 504 W/m 10,8 C 32,9 C 4,0 km/h (1 Bft) 0,00 %
13.08.2015 18:29 32,9 C 27 % 1010,8 hPa 0,0 l/m 13,3 km/h (3 Bft) O-SO 107 5 min 0,000 mm 1,0 UV-I 483 W/m 11,4 C 32,9 C 19,8 km/h (3 Bft) 0,00 %
13.08.2015 18:34 32,9 C 28 % 1010,8 hPa 0,0 l/m 10,4 km/h (2 Bft) O-SO 107 5 min 0,000 mm 1,0 UV-I 469 W/m 11,9 C 32,9 C 15,8 km/h (3 Bft) 0,00 %
13.08.2015 18:39 32,7 C 28 % 1010,5 hPa 0,0 l/m 1,8 km/h (1 Bft) S-SO 150 5 min 0,000 mm 1,0 UV-I 440 W/m 11,8 C 32,7 C 4,0 km/h (1 Bft) 0,00 %
13.08.2015 18:44 32,7 C 28 % 1010,6 hPa 0,0 l/m 15,5 km/h (3 Bft) O 86 5 min 0,000 mm 1,0 UV-I 419 W/m 11,8 C 32,6 C 19,8 km/h (3 Bft) 0,00 %
13.08.2015 18:49 32,6 C 28 % 1010,6 hPa 0,0 l/m 13,3 km/h (3 Bft) O 80 5 min 0,000 mm 1,0 UV-I 392 W/m 11,7 C 32,5 C 19,8 km/h (3 Bft) 0,00 %
13.08.2015 18:54 32,6 C 29 % 1010,4 hPa 0,0 l/m 7,2 km/h (2 Bft) SO 128 5 min 0,000 mm 1,0 UV-I 372 W/m 12,2 C 32,6 C 11,9 km/h (2 Bft) 0,00 %
13.08.2015 18:59 32,5 C 30 % 1010,5 hPa 0,0 l/m 9,0 km/h (2 Bft) O 98 5 min 0,000 mm 1,0 UV-I 345 W/m 12,7 C 32,5 C 11,9 km/h (2 Bft) 0,00 %
13.08.2015 19:04 32,5 C 30 % 1010,5 hPa 0,0 l/m 7,2 km/h (2 Bft) O-SO 112 5 min 0,000 mm 1,0 UV-I 322 W/m 12,7 C 32,5 C 7,9 km/h (2 Bft) 0,00 %
13.08.2015 19:09 32,4 C 31 % 1010,6 hPa 0,0 l/m 8,3 km/h (2 Bft) SO 128 5 min 0,000 mm 0,0 UV-I 284 W/m 13,1 C 32,4 C 11,9 km/h (2 Bft) 0,00 %
13.08.2015 19:14 32,2 C 32 % 1010,4 hPa 0,0 l/m 5,4 km/h (1 Bft) N 355 5 min 0,000 mm 0,0 UV-I 256 W/m 13,4 C 32,2 C 11,9 km/h (2 Bft) 0,00 %
13.08.2015 19:19 32,0 C 32 % 1010,5 hPa 0,0 l/m 4,3 km/h (1 Bft) O-SO 117 5 min 0,000 mm 0,0 UV-I 229 W/m 13,2 C 32,0 C 7,9 km/h (2 Bft) 0,00 %
13.08.2015 19:24 31,9 C 28 % 1010,4 hPa 0,0 l/m 12,2 km/h (2 Bft) O 79 5 min 0,000 mm 0,0 UV-I 195 W/m 11,1 C 31,7 C 15,8 km/h (3 Bft) 0,00 %
13.08.2015 19:29 31,7 C 29 % 1010,4 hPa 0,0 l/m 5,8 km/h (2 Bft) O-SO 117 5 min 0,000 mm 0,0 UV-I 161 W/m 11,5 C 31,7 C 7,9 km/h (2 Bft) 0,00 %
13.08.2015 19:34 31,6 C 29 % 1010,6 hPa 0,0 l/m 3,2 km/h (1 Bft) SO 129 5 min 0,000 mm 0,0 UV-I 107 W/m 11,4 C 31,6 C 7,9 km/h (2 Bft) 0,00 %
13.08.2015 19:39 31,4 C 29 % 1010,6 hPa 0,0 l/m 2,9 km/h (1 Bft) S-SO 153 5 min 0,000 mm 0,0 UV-I 72 W/m 11,2 C 31,4 C 7,9 km/h (2 Bft) 0,00 %
13.08.2015 19:44 31,2 C 29 % 1010,5 hPa 0,0 l/m 4,7 km/h (1 Bft) O-NO 58 5 min 0,000 mm 0,0 UV-I 71 W/m 11,0 C 31,2 C 7,9 km/h (2 Bft) 0,00 %
13.08.2015 19:49 30,9 C 31 % 1010,4 hPa 0,0 l/m 5,4 km/h (1 Bft) NO 44 5 min 0,000 mm 0,0 UV-I 45 W/m 11,8 C 30,9 C 11,9 km/h (2 Bft) 0,00 %
13.08.2015 19:54 30,7 C 32 % 1010,5 hPa 0,0 l/m 2,2 km/h (1 Bft) SO 137 5 min 0,000 mm 0,0 UV-I 33 W/m 12,1 C 30,7 C 4,0 km/h (1 Bft) 0,00 %
13.08.2015 19:59 30,4 C 31 % 1010,4 hPa 0,0 l/m 4,0 km/h (1 Bft) NO 36 0 min 0,000 mm 0,0 UV-I 23 W/m 11,3 C 30,4 C 7,9 km/h (2 Bft) 0,00 %
13.08.2015 20:04 30,2 C 32 % 1010,4 hPa 0,0 l/m 6,5 km/h (2 Bft) O 82 0 min 0,000 mm 0,0 UV-I 17 W/m 11,7 C 30,2 C 7,9 km/h (2 Bft) 0,00 %
13.08.2015 20:09 30,0 C 33 % 1010,4 hPa 0,0 l/m 2,9 km/h (1 Bft) N-NO 26 0 min 0,000 mm 0,0 UV-I 7 W/m 11,9 C 30,0 C 7,9 km/h (2 Bft) 0,00 %
13.08.2015 20:14 29,8 C 33 % 1010,4 hPa 0,0 l/m 0,7 km/h (0 Bft) O-SO 106 0 min 0,000 mm 0,0 UV-I 2 W/m 11,8 C 29,8 C 4,0 km/h (1 Bft) 0,00 %
13.08.2015 20:19 29,7 C 33 % 1010,6 hPa 0,0 l/m 3,2 km/h (1 Bft) O 98 0 min 0,000 mm 0,0 UV-I 0 W/m 11,7 C 29,7 C 7,9 km/h (2 Bft) 0,00 %
13.08.2015 20:24 29,5 C 33 % 1010,6 hPa 0,0 l/m 10,4 km/h (2 Bft) O 81 0 min 0,000 mm 0,0 UV-I 0 W/m 11,5 C 29,1 C 11,9 km/h (2 Bft) 0,00 %
13.08.2015 20:29 29,4 C 34 % 1010,5 hPa 0,0 l/m 7,2 km/h (2 Bft) O 97 0 min 0,000 mm 0,0 UV-I 0 W/m 11,9 C 29,3 C 7,9 km/h (2 Bft) 0,00 %
13.08.2015 20:34 29,3 C 34 % 1010,6 hPa 0,0 l/m 5,8 km/h (2 Bft) NO 41 0 min 0,000 mm 0,0 UV-I 0 W/m 11,8 C 29,3 C 7,9 km/h (2 Bft) 0,00 %
13.08.2015 20:39 29,1 C 34 % 1010,4 hPa 0,0 l/m 1,8 km/h (1 Bft) O-NO 69 0 min 0,000 mm 0,0 UV-I 0 W/m 11,6 C 29,1 C 4,0 km/h (1 Bft) 0,00 %
13.08.2015 20:44 29,0 C 36 % 1010,4 hPa 0,0 l/m 8,3 km/h (2 Bft) SO 135 0 min 0,000 mm 0,0 UV-I 0 W/m 12,4 C 28,8 C 11,9 km/h (2 Bft) 0,00 %
13.08.2015 20:49 28,9 C 36 % 1010,5 hPa 0,0 l/m 0,0 km/h (0 Bft) NO 42 0 min 0,000 mm 0,0 UV-I 0 W/m 12,3 C 28,9 C 0,0 km/h (0 Bft) 0,00 %
13.08.2015 20:54 28,7 C 36 % 1010,4 hPa 0,0 l/m 4,0 km/h (1 Bft) O-SO 102 0 min 0,000 mm 0,0 UV-I 0 W/m 12,1 C 28,7 C 7,9 km/h (2 Bft) 0,00 %
13.08.2015 20:59 28,4 C 36 % 1010,4 hPa 0,0 l/m 0,4 km/h (0 Bft) SO 138 0 min 0,000 mm 0,0 UV-I 0 W/m 11,9 C 28,4 C 4,0 km/h (1 Bft) 0,00 %
13.08.2015 21:04 28,2 C 36 % 1010,1 hPa 0,0 l/m 3,2 km/h (1 Bft) O 93 0 min 0,000 mm 0,0 UV-I 0 W/m 11,7 C 28,2 C 4,0 km/h (1 Bft) 0,00 %
13.08.2015 21:09 28,1 C 36 % 1010,2 hPa 0,0 l/m 4,7 km/h (1 Bft) NO 41 0 min 0,000 mm 0,0 UV-I 0 W/m 11,6 C 28,1 C 7,9 km/h (2 Bft) 0,00 %
13.08.2015 21:14 28,0 C 38 % 1010,2 hPa 0,0 l/m 4,7 km/h (1 Bft) SO 124 0 min 0,000 mm 0,0 UV-I 0 W/m 12,3 C 28,0 C 7,9 km/h (2 Bft) 0,00 %
13.08.2015 21:19 27,9 C 38 % 1010,3 hPa 0,0 l/m 3,2 km/h (1 Bft) O 95 0 min 0,000 mm 0,0 UV-I 0 W/m 12,2 C 27,9 C 7,9 km/h (2 Bft) 0,00 %
13.08.2015 21:24 27,7 C 38 % 1010,2 hPa 0,0 l/m 6,8 km/h (2 Bft) SO 127 0 min 0,000 mm 0,0 UV-I 0 W/m 12,1 C 27,6 C 11,9 km/h (2 Bft) 0,00 %
13.08.2015 21:29 27,6 C 39 % 1010,1 hPa 0,0 l/m 2,9 km/h (1 Bft) O-SO 112 0 min 0,000 mm 0,0 UV-I 0 W/m 12,4 C 27,6 C 4,0 km/h (1 Bft) 0,00 %
13.08.2015 21:34 27,6 C 39 % 1010,1 hPa 0,0 l/m 3,2 km/h (1 Bft) O-SO 110 0 min 0,000 mm 0,0 UV-I 0 W/m 12,4 C 27,6 C 4,0 km/h (1 Bft) 0,00 %
13.08.2015 21:39 27,5 C 39 % 1010,1 hPa 0,0 l/m 0,0 km/h (0 Bft) W-SW 246 0 min 0,000 mm 0,0 UV-I 0 W/m 12,3 C 27,5 C 0,0 km/h (0 Bft) 0,00 %
13.08.2015 21:44 27,4 C 40 % 1010,1 hPa 0,0 l/m 1,4 km/h (1 Bft) SO 138 0 min 0,000 mm 0,0 UV-I 0 W/m 12,6 C 27,4 C 4,0 km/h (1 Bft) 0,00 %
13.08.2015 21:49 27,3 C 39 % 1010,2 hPa 0,0 l/m 4,3 km/h (1 Bft) O 83 0 min 0,000 mm 0,0 UV-I 0 W/m 12,1 C 27,3 C 7,9 km/h (2 Bft) 0,00 %
13.08.2015 21:54 27,1 C 41 % 1010,0 hPa 0,0 l/m 1,8 km/h (1 Bft) SO 124 0 min 0,000 mm 0,0 UV-I 0 W/m 12,7 C 27,1 C 4,0 km/h (1 Bft) 0,00 %
13.08.2015 21:59 27,0 C 39 % 1010,2 hPa 0,0 l/m 0,7 km/h (0 Bft) NO 54 0 min 0,000 mm 0,0 UV-I 0 W/m 11,8 C 27,0 C 4,0 km/h (1 Bft) 0,00 %
13.08.2015 22:04 26,8 C 39 % 1010,1 hPa 0,0 l/m 0,0 km/h (0 Bft) O-NO 63 0 min 0,000 mm 0,0 UV-I 0 W/m 11,7 C 26,8 C 0,0 km/h (0 Bft) 0,00 %
13.08.2015 22:09 26,7 C 39 % 1010,2 hPa 0,0 l/m 1,8 km/h (1 Bft) O-SO 107 0 min 0,000 mm 0,0 UV-I 0 W/m 11,6 C 26,7 C 4,0 km/h (1 Bft) 0,00 %
13.08.2015 22:14 26,5 C 40 % 1010,2 hPa 0,0 l/m 7,2 km/h (2 Bft) O-SO 122 0 min 0,000 mm 0,0 UV-I 0 W/m 11,8 C 26,3 C 7,9 km/h (2 Bft) 0,00 %
13.08.2015 22:19 26,4 C 40 % 1010,0 hPa 0,0 l/m 4,0 km/h (1 Bft) O-SO 122 0 min 0,000 mm 0,0 UV-I 0 W/m 11,7 C 26,4 C 7,9 km/h (2 Bft) 0,00 %
13.08.2015 22:24 26,3 C 40 % 1010,1 hPa 0,0 l/m 3,2 km/h (1 Bft) O-SO 120 0 min 0,000 mm 0,0 UV-I 0 W/m 11,6 C 26,3 C 4,0 km/h (1 Bft) 0,00 %
13.08.2015 22:29 26,2 C 40 % 1010,0 hPa 0,0 l/m 1,8 km/h (1 Bft) O-SO 102 0 min 0,000 mm 0,0 UV-I 0 W/m 11,5 C 26,2 C 4,0 km/h (1 Bft) 0,00 %
13.08.2015 22:34 26,2 C 40 % 1010,1 hPa 0,0 l/m 0,7 km/h (0 Bft) O-NO 69 0 min 0,000 mm 0,0 UV-I 0 W/m 11,5 C 26,2 C 4,0 km/h (1 Bft) 0,00 %
13.08.2015 22:39 26,1 C 40 % 1010,2 hPa 0,0 l/m 1,4 km/h (1 Bft) O-SO 121 0 min 0,000 mm 0,0 UV-I 0 W/m 11,4 C 26,1 C 4,0 km/h (1 Bft) 0,00 %
13.08.2015 22:44 25,9 C 42 % 1010,0 hPa 0,0 l/m 4,0 km/h (1 Bft) O-NO 73 0 min 0,000 mm 0,0 UV-I 0 W/m 12,0 C 25,9 C 4,0 km/h (1 Bft) 0,00 %
13.08.2015 22:49 25,8 C 42 % 1010,2 hPa 0,0 l/m 1,8 km/h (1 Bft) SO 135 0 min 0,000 mm 0,0 UV-I 0 W/m 11,9 C 25,8 C 4,0 km/h (1 Bft) 0,00 %
13.08.2015 22:54 25,7 C 42 % 1010,1 hPa 0,0 l/m 0,7 km/h (0 Bft) O-SO 119 0 min 0,000 mm 0,0 UV-I 0 W/m 11,8 C 25,7 C 4,0 km/h (1 Bft) 0,00 %
13.08.2015 22:59 25,6 C 42 % 1010,3 hPa 0,0 l/m 4,0 km/h (1 Bft) O 99 0 min 0,000 mm 0,0 UV-I 0 W/m 11,7 C 25,6 C 7,9 km/h (2 Bft) 0,00 %
13.08.2015 23:04 25,5 C 43 % 1010,2 hPa 0,0 l/m 1,4 km/h (1 Bft) O-NO 57 0 min 0,000 mm 0,0 UV-I 0 W/m 12,0 C 25,5 C 4,0 km/h (1 Bft) 0,00 %
13.08.2015 23:09 25,4 C 43 % 1010,2 hPa 0,0 l/m 0,4 km/h (0 Bft) O 93 0 min 0,000 mm 0,0 UV-I 0 W/m 11,9 C 25,4 C 4,0 km/h (1 Bft) 0,00 %
13.08.2015 23:14 25,2 C 43 % 1010,1 hPa 0,0 l/m 0,0 km/h (0 Bft) O-SO 102 0 min 0,000 mm 0,0 UV-I 0 W/m 11,7 C 25,2 C 0,0 km/h (0 Bft) 0,00 %
13.08.2015 23:19 24,9 C 45 % 1010,1 hPa 0,0 l/m 0,7 km/h (0 Bft) O 94 0 min 0,000 mm 0,0 UV-I 0 W/m 12,1 C 24,9 C 4,0 km/h (1 Bft) 0,00 %
13.08.2015 23:24 24,6 C 46 % 1010,2 hPa 0,0 l/m 0,0 km/h (0 Bft) O-NO 63 0 min 0,000 mm 0,0 UV-I 0 W/m 12,2 C 24,6 C 0,0 km/h (0 Bft) 0,00 %
13.08.2015 23:29 24,3 C 47 % 1010,3 hPa 0,0 l/m 0,0 km/h (0 Bft) O 83 0 min 0,000 mm 0,0 UV-I 0 W/m 12,3 C 24,3 C 0,0 km/h (0 Bft) 0,00 %
13.08.2015 23:34 24,0 C 48 % 1010,2 hPa 0,0 l/m 0,0 km/h (0 Bft) O 97 0 min 0,000 mm 0,0 UV-I 0 W/m 12,3 C 24,0 C 0,0 km/h (0 Bft) 0,00 %
13.08.2015 23:39 23,7 C 48 % 1010,1 hPa 0,0 l/m 0,4 km/h (0 Bft) O 97 0 min 0,000 mm 0,0 UV-I 0 W/m 12,0 C 23,7 C 4,0 km/h (1 Bft) 0,00 %
13.08.2015 23:44 23,6 C 48 % 1010,0 hPa 0,0 l/m 0,7 km/h (0 Bft) SO 124 0 min 0,000 mm 0,0 UV-I 0 W/m 11,9 C 23,6 C 4,0 km/h (1 Bft) 0,00 %
13.08.2015 23:49 23,7 C 47 % 1010,0 hPa 0,0 l/m 0,0 km/h (0 Bft) O 100 0 min 0,000 mm 0,0 UV-I 0 W/m 11,7 C 23,7 C 0,0 km/h (0 Bft) 0,00 %
13.08.2015 23:54 23,8 C 47 % 1009,9 hPa 0,0 l/m 0,4 km/h (0 Bft) O 99 0 min 0,000 mm 0,0 UV-I 0 W/m 11,8 C 23,8 C 4,0 km/h (1 Bft) 0,00 %
13.08.2015 23:59 23,8 C 50 % 1010,1 hPa 0,0 l/m 0,0 km/h (0 Bft) O 84 0 min 0,000 mm 0,0 UV-I 0 W/m 12,7 C 23,8 C 0,0 km/h (0 Bft) 0,00 %
_ Min-Zeit 05:23 15:04 23:54 - 00:03 - - - - - - 15:04 05:23 00:03 00:03
Minimum _ 16,4 C 20 % 1009,9 hPa - 0,0 km/h (0 Bft) - - - - - - 8,2 C 16,4 C 0,0 km/h (0 Bft) 0,00 %
_ Max-Zeit 15:54 04:58 00:43 00:03 12:04 - - 08:19 00:03 11:59 14:59 10:39 15:54 12:04 00:03
Maximum _ 34,7 C 78 % 1017,1 hPa 0,0 l/m 15,8 km/h
S-SO (3 Bft)
- - 6 min 0,000 mm 4,0 UV-I 896 W/m 14,9 C 34,7 C 24,1 km/h
S-SO (4 Bft)
0,00 %
Durchschnitt _ 26,5 C 46 % 1014,1 hPa #0,0 l/m 3,2 km/h (1 Bft) O-SO - #13:21 h #0,000 mm 2,2 UV-I 532 W/m 12,3 C 26,5 C 5,1 km/h (1 Bft) 0,00 %